When you browse on this site, cookies collect data to enhance your experience and personalize the content and advertising you see.
Visit our Privacy Policy to learn more. By continuing to use the site, you agree to this use of cookies and data.
  • In Czech Republic
  • List of Countries
  • For 7 days
  • Water Temperature
  • Weather Map
  • Weather Widgets
  • user-avatar
    Login

    Hourly Weather Albany

    Today, 10 April, Friday

    Time Temperature Precipitation Wind Pressure Humidity
    00:00 +18°C° 0 mm 4 mps 761 mmHg 92%
    01:00 +18°C° 0 mm 4 mps 760 mmHg 91%
    02:00 +18°C° 0 mm 3 mps 760 mmHg 89%
    03:00 +18°C° 0 mm 3 mps 760 mmHg 88%
    04:00 +18°C° 0 mm 3 mps 761 mmHg 88%
    05:00 +18°C° 0 mm 2 mps 761 mmHg 88%
    06:00 +19°C° 0 mm 3 mps 761 mmHg 86%
    07:00 +19°C° 0 mm 3 mps 762 mmHg 84%
    08:00 +19°C° 0 mm 4 mps 762 mmHg 83%
    09:00 +20°C° 0 mm 3 mps 762 mmHg 78%
    10:00 +21°C° 0 mm 3 mps 761 mmHg 73%
    11:00 +22°C° 0 mm 3 mps 761 mmHg 69%
    12:00 +22°C° 0 mm 4 mps 761 mmHg 69%
    13:00 +22°C° 0 mm 5 mps 760 mmHg 70%
    14:00 +22°C° 0 mm 6 mps 760 mmHg 70%
    15:00 +21°C° 0 mm 5 mps 760 mmHg 73%
    16:00 +20°C° 0 mm 5 mps 761 mmHg 76%
    17:00 +19°C° 0 mm 5 mps 761 mmHg 78%
    18:00 +19°C° 0 mm 5 mps 761 mmHg 79%
    19:00 +19°C° 0 mm 4 mps 762 mmHg 80%
    20:00 +18°C° 0 mm 4 mps 762 mmHg 81%
    21:00 +18°C° 0 mm 4 mps 762 mmHg 81%
    22:00 +17°C° 0 mm 5 mps 762 mmHg 81%
    23:00 +17°C° 0 mm 5 mps 762 mmHg 81%

    Tomorrow, 11 April, Saturday

    Time Temperature Precipitation Wind Pressure Humidity
    00:00 +17°C° 0 mm 5 mps 762 mmHg 82%
    01:00 +17°C° 0 mm 5 mps 761 mmHg 82%
    02:00 +17°C° 0 mm 5 mps 761 mmHg 83%
    03:00 +17°C° 0 mm 5 mps 761 mmHg 84%
    04:00 +17°C° 0 mm 5 mps 761 mmHg 85%
    05:00 +16°C° 0 mm 5 mps 761 mmHg 86%
    06:00 +17°C° 0 mm 5 mps 761 mmHg 85%
    07:00 +17°C° 0 mm 5 mps 761 mmHg 83%
    08:00 +19°C° 0 mm 6 mps 761 mmHg 82%
    09:00 +21°C° 0 mm 6 mps 760 mmHg 74%
    10:00 +23°C° 0 mm 6 mps 760 mmHg 66%
    11:00 +27°C° 0 mm 6 mps 759 mmHg 57%
    12:00 +28°C° 0 mm 6 mps 758 mmHg 52%
    13:00 +30°C° 0 mm 5 mps 757 mmHg 46%
    14:00 +33°C° 0 mm 5 mps 757 mmHg 40%
    15:00 +32°C° 0 mm 5 mps 757 mmHg 46%
    16:00 +29°C° 0 mm 5 mps 756 mmHg 51%
    17:00 +28°C° 0 mm 5 mps 756 mmHg 57%
    18:00 +27°C° 0 mm 5 mps 756 mmHg 59%
    19:00 +26°C° 0 mm 5 mps 756 mmHg 61%
    20:00 +25°C° 0 mm 5 mps 756 mmHg 62%
    21:00 +25°C° 0 mm 4 mps 756 mmHg 58%
    22:00 +25°C° 0 mm 4 mps 756 mmHg 53%
    23:00 +25°C° 0 mm 3 mps 756 mmHg 49%

    Day after tomorrow, 12 April, Sunday

    Time Temperature Precipitation Wind Pressure Humidity
    00:00 +25°C° 0 mm 3 mps 755 mmHg 48%
    01:00 +24°C° 0 mm 3 mps 755 mmHg 47%
    02:00 +24°C° 0 mm 3 mps 754 mmHg 46%
    03:00 +22°C° 0 mm 3 mps 755 mmHg 51%
    04:00 +21°C° 0 mm 3 mps 755 mmHg 56%
    05:00 +20°C° 0 mm 3 mps 755 mmHg 61%
    06:00 +21°C° 0 mm 4 mps 755 mmHg 68%
    07:00 +22°C° 0 mm 4 mps 756 mmHg 75%
    08:00 +22°C° 0 mm 4 mps 756 mmHg 82%
    09:00 +23°C° 0 mm 4 mps 756 mmHg 74%
    10:00 +25°C° 0 mm 4 mps 756 mmHg 67%
    11:00 +26°C° 0 mm 5 mps 756 mmHg 59%
    12:00 +27°C° 0 mm 5 mps 756 mmHg 56%
    13:00 +27°C° 0 mm 6 mps 755 mmHg 53%
    14:00 +27°C° 0 mm 7 mps 755 mmHg 50%
    15:00 +26°C° 0 mm 7 mps 755 mmHg 55%
    16:00 +24°C° 0 mm 7 mps 756 mmHg 61%
    17:00 +22°C° 0 mm 7 mps 756 mmHg 66%
    18:00 +21°C° 0 mm 6 mps 756 mmHg 70%
    19:00 +21°C° 0 mm 6 mps 757 mmHg 74%
    20:00 +20°C° 0 mm 5 mps 757 mmHg 78%
    21:00 +19°C° 0 mm 5 mps 757 mmHg 79%
    22:00 +18°C° 0 mm 4 mps 758 mmHg 81%
    23:00 +18°C° 0 mm 4 mps 758 mmHg 82%

    13 April, Monday

    Time Temperature Precipitation Wind Pressure Humidity
    00:00 +17°C° 0 mm 4 mps 758 mmHg 84%
    01:00 +17°C° 0 mm 3 mps 757 mmHg 87%
    02:00 +16°C° 0 mm 3 mps 757 mmHg 89%
    03:00 +16°C° 0 mm 3 mps 757 mmHg 90%
    04:00 +16°C° 0 mm 3 mps 757 mmHg 90%
    05:00 +16°C° 0 mm 3 mps 757 mmHg 91%
    06:00 +17°C° 0.1 mm 2 mps 758 mmHg 87%
    07:00 +19°C° 0.1 mm 1 mps 758 mmHg 83%
    08:00 +20°C° 0.1 mm 1 mps 758 mmHg 79%
    09:00 +21°C° 0 mm 1 mps 758 mmHg 72%
    10:00 +21°C° 0 mm 2 mps 758 mmHg 64%
    11:00 +24°C° 0 mm 3 mps 758 mmHg 56%
    12:00 +22°C° 0.1 mm 3 mps 758 mmHg 58%
    13:00 +22°C° 0.1 mm 4 mps 758 mmHg 59%
    14:00 +22°C° 0.1 mm 4 mps 757 mmHg 61%
    15:00 +22°C° 0 mm 4 mps 757 mmHg 63%
    16:00 +21°C° 0 mm 4 mps 758 mmHg 64%
    17:00 +21°C° 0 mm 4 mps 758 mmHg 66%
    18:00 +20°C° 0 mm 4 mps 758 mmHg 68%
    19:00 +19°C° 0 mm 3 mps 759 mmHg 69%
    20:00 +19°C° 0 mm 2 mps 759 mmHg 71%
    21:00 +18°C° 0 mm 2 mps 759 mmHg 76%
    22:00 +17°C° 0 mm 2 mps 759 mmHg 82%
    23:00 +16°C° 0 mm 2 mps 759 mmHg 88%

    14 April, Tuesday

    Time Temperature Precipitation Wind Pressure Humidity
    00:00 +16°C° 0 mm 2 mps 759 mmHg 87%
    01:00 +16°C° 0 mm 1 mps 759 mmHg 86%
    02:00 +16°C° 0 mm 1 mps 759 mmHg 85%
    03:00 +16°C° 0.1 mm 1 mps 759 mmHg 86%
    04:00 +16°C° 0.1 mm 1 mps 759 mmHg 86%
    05:00 +15°C° 0.1 mm 0 mps 759 mmHg 87%
    06:00 +16°C° 0.1 mm 0 mps 759 mmHg 86%
    07:00 +16°C° 0.1 mm 0 mps 759 mmHg 84%
    08:00 +16°C° 0.1 mm 0 mps 759 mmHg 83%
    09:00 +19°C° 0.1 mm 1 mps 759 mmHg 78%
    10:00 +20°C° 0.1 mm 1 mps 758 mmHg 73%
    11:00 +21°C° 0.1 mm 1 mps 758 mmHg 68%
    12:00 +22°C° 0.1 mm 1 mps 758 mmHg 65%
    13:00 +21°C° 0.1 mm 2 mps 757 mmHg 61%
    14:00 +22°C° 0.1 mm 3 mps 757 mmHg 58%
    15:00 +21°C° 0.1 mm 3 mps 757 mmHg 64%
    16:00 +20°C° 0.1 mm 3 mps 757 mmHg 69%
    17:00 +19°C° 0.1 mm 3 mps 756 mmHg 75%
    18:00 +18°C° 0 mm 3 mps 757 mmHg 78%
    19:00 +17°C° 0 mm 3 mps 757 mmHg 82%
    20:00 +16°C° 0 mm 3 mps 757 mmHg 85%
    21:00 +16°C° 0 mm 3 mps 757 mmHg 82%
    22:00 +16°C° 0 mm 3 mps 757 mmHg 79%
    23:00 +15°C° 0 mm 4 mps 758 mmHg 75%

    15 April, Wednesday

    Time Temperature Precipitation Wind Pressure Humidity
    00:00 +15°C° 0 mm 4 mps 757 mmHg 76%
    01:00 +14°C° 0 mm 4 mps 757 mmHg 77%
    02:00 +13°C° 0 mm 4 mps 757 mmHg 78%
    03:00 +12°C° 0 mm 4 mps 757 mmHg 80%
    04:00 +12°C° 0 mm 4 mps 757 mmHg 82%
    05:00 +11°C° 0 mm 4 mps 756 mmHg 84%
    06:00 +12°C° 0 mm 5 mps 756 mmHg 79%
    07:00 +13°C° 0 mm 5 mps 756 mmHg 74%
    08:00 +14°C° 0 mm 6 mps 756 mmHg 70%
    09:00 +16°C° 0 mm 6 mps 756 mmHg 63%
    10:00 +18°C° 0 mm 7 mps 756 mmHg 57%
    11:00 +21°C° 0 mm 7 mps 756 mmHg 50%
    12:00 +18°C° 1.8 mm 7 mps 756 mmHg 63%
    13:00 +16°C° 1.8 mm 6 mps 756 mmHg 75%
    14:00 +15°C° 1.8 mm 5 mps 756 mmHg 88%
    15:00 +15°C° 0.5 mm 5 mps 756 mmHg 85%
    16:00 +15°C° 0.5 mm 5 mps 757 mmHg 82%
    17:00 +15°C° 0.5 mm 6 mps 757 mmHg 80%
    18:00 +14°C° 0.1 mm 6 mps 758 mmHg 80%
    19:00 +13°C° 0.1 mm 5 mps 758 mmHg 81%
    20:00 +13°C° 0.1 mm 5 mps 759 mmHg 81%
    21:00 +12°C° 0 mm 5 mps 759 mmHg 81%
    22:00 +12°C° 0 mm 4 mps 760 mmHg 81%
    23:00 +11°C° 0 mm 4 mps 760 mmHg 81%
    Show more